374  
ASUS43 KGLD 230508  
RWRGLD  
 
GOODLAND FORECAST AREA HOURLY WEATHER ROUNDUP  
NATIONAL WEATHER SERVICE GOODLAND KS  
1100 PM MDT FRI JUN 22 2018  
   
..OFFICIAL OBSERVATIONS
 
 
 
CITY SKY/WX TMP DP RH WIND PRES REMARKS
 
GOODLAND KS CLEAR 58 56 93 SW7 29.90R  
HILL CITY KS CLOUDY 60 59 96 N7 29.86R  
IMPERIAL NEB LGT RAIN 63 57 81 NE14 29.91F  
MCCOOK NEB PTCLDY 61 58 90 NW16G23 29.95R  
AKRON CO PTCLDY 57 50 77 N9 29.99R  
BURLINGTON CO CLEAR 53 51 93 CALM 29.94R  
LIMON CO CLEAR 53 51 93 CALM 30.02R  

 
   
..UNOFFICIAL OBSERVATIONS
 
 
 
CITY SKY/WX TMP DP RH WIND PRES REMARKS
 
COLBY KS PTCLDY 55 55 100 W9 29.90R  
NORTON KS CLEAR 61 55 82 SW6 29.85  
SHARON SPRINGS N/A 55 53 93 CALM N/A  
KIT CARSON CO N/A 54 48 81 CALM N/A  
YUMA CO FAIR 54 43 66 N5 29.98R  

 
 
 
CLICK HERE TO GO TO PREVIOUS BULLETINS.

The Nexlab KS Page
The Nexlab CO Page
The Nexlab NE Page Main Text Page